Location: Unspecified
(28.2490°N, 0.0000°E)
Time: 04:35:44
(UTC+00:00)

Altair - All Passes

Search period start: 04 April 2026 00:00
Search period end: 14 April 2026 00:00
Orbit: 1502 x 1682 km, 47.2° (Epoch: 29 March)

Date Brightness Start Highest point End Pass type
(mag) Time Alt. Az. Time Alt. Az. Time Alt. Az.
4 Apr - 00:43:24 10° WNW 00:51:17 33° SW 00:59:11 10° S visible
4 Apr - 13:47:01 10° SSW 13:56:22 45° SE 14:05:28 10° ENE daylight
4 Apr - 15:51:16 10° WSW 16:01:01 58° NW 16:10:28 10° NE daylight
4 Apr - 17:59:52 10° WNW 18:07:40 26° NNW 18:15:16 10° NE daylight
4 Apr - 20:07:48 10° NW 20:15:29 27° NNE 20:22:59 10° ENE visible
4 Apr - 22:12:38 10° NW 22:21:52 62° NE 22:30:54 10° ESE visible
5 Apr - 00:17:58 10° WNW 00:26:09 37° SW 00:34:18 10° SSE visible
5 Apr - 13:22:01 10° SSW 13:31:10 41° SE 13:40:05 10° ENE daylight
5 Apr - 15:25:50 10° WSW 15:35:43 62° NW 15:45:16 10° NE daylight
5 Apr - 17:34:15 10° WNW 17:42:13 27° NNW 17:49:57 10° NE daylight
5 Apr - 19:42:26 10° NW 19:50:02 26° NNE 19:57:27 10° ENE visible
5 Apr - 21:47:24 10° NW 21:56:35 57° NE 22:05:34 10° ESE visible
5 Apr - 23:52:34 10° WNW 00:01:00 41° SW 00:09:23 10° SSE visible
6 Apr - 12:57:04 10° S 13:05:58 37° SE 13:14:39 10° ENE daylight
6 Apr - 15:00:26 10° WSW 15:10:25 67° NW 15:20:03 10° NE daylight
6 Apr - 17:08:37 10° WNW 17:16:45 28° NNW 17:24:41 10° NE daylight
6 Apr - 19:17:02 10° NW 19:24:35 25° N 19:31:56 10° ENE visible
6 Apr - 21:22:10 10° NW 21:31:18 53° NNE 21:40:12 10° ESE visible
6 Apr - 23:27:11 10° WNW 23:35:51 46° SW 23:44:26 10° SSE visible
7 Apr - 12:32:09 10° S 12:40:47 33° SE 12:49:12 10° ENE daylight
7 Apr - 14:35:04 10° WSW 14:45:07 72° NW 14:54:51 10° NE daylight
7 Apr - 16:43:00 10° WNW 16:51:19 30° NNW 16:59:24 10° NE daylight
7 Apr - 18:51:37 10° NW 18:59:07 25° N 19:06:25 10° ENE visible
7 Apr - 20:56:56 10° NW 21:06:00 49° NNE 21:14:49 10° ESE visible
7 Apr - 23:01:50 10° WNW 23:10:41 51° SW 23:19:26 10° SSE visible
8 Apr - 12:07:18 10° S 12:15:35 29° SE 12:23:42 10° ENE daylight
8 Apr - 14:09:43 10° SW 14:19:49 78° NW 14:29:38 10° NE daylight
8 Apr - 16:17:23 10° W 16:25:53 31° NNW 16:34:09 10° NE daylight
8 Apr - 18:26:11 10° NW 18:33:39 24° N 18:40:55 10° ENE daylight
8 Apr - 20:31:43 10° NW 20:40:41 46° NNE 20:49:24 10° ESE visible
8 Apr - 22:36:30 10° WNW 22:45:31 57° SW 22:54:24 10° SSE visible
9 Apr - 11:42:32 10° S 11:50:23 26° SE 11:58:08 10° ENE daylight
9 Apr - 13:44:24 10° SW 13:54:32 84° NW 14:04:24 10° NE daylight
9 Apr - 15:51:46 10° W 16:00:27 33° NNW 16:08:54 10° NE daylight
9 Apr - 18:00:43 10° NW 18:08:10 24° N 18:15:26 10° NE daylight
9 Apr - 20:06:28 10° NW 20:15:21 43° NNE 20:23:59 10° E visible
9 Apr - 22:11:12 10° NW 22:20:21 63° SW 22:29:20 10° SSE visible
10 Apr - 00:21:29 10° WSW 00:23:49 11° WSW 00:26:08 10° SW night (unlit)
10 Apr - 11:17:49 10° S 11:25:13 23° SE 11:32:30 10° ENE daylight
10 Apr - 13:19:06 10° SW 13:29:16 90° SE 13:39:10 10° NE daylight
10 Apr - 15:26:10 10° W 15:35:02 35° NNW 15:43:40 10° NE daylight
10 Apr - 17:35:14 10° NW 17:42:42 24° N 17:49:57 10° NE daylight
10 Apr - 19:41:12 10° NW 19:50:01 40° NNE 19:58:32 10° E visible
10 Apr - 21:45:54 10° NW 21:55:10 69° SW 22:04:14 10° SE visible
10 Apr - 23:54:47 10° W 23:58:41 13° WSW 00:02:36 10° SSW visible
11 Apr - 10:53:12 10° SSE 11:00:02 21° SE 11:06:47 10° E daylight
11 Apr - 12:53:51 10° SW 13:04:00 83° SE 13:13:54 10° NE daylight
11 Apr - 15:00:35 10° W 15:09:38 37° NNW 15:18:26 10° NE daylight
11 Apr - 17:09:43 10° NW 17:17:12 24° N 17:24:30 10° NE daylight
11 Apr - 19:15:56 10° NW 19:24:39 38° NNE 19:33:05 10° E visible
11 Apr - 21:20:36 10° NW 21:29:58 76° SW 21:39:06 10° SE visible
11 Apr - 23:28:37 10° W 23:33:34 16° WSW 23:38:30 10° SSW visible
12 Apr - 10:28:42 10° SSE 10:34:52 18° SE 10:40:57 10° E daylight
12 Apr - 12:28:38 10° SW 12:38:45 77° SE 12:48:38 10° NE daylight
12 Apr - 14:35:01 10° W 14:44:14 39° NNW 14:53:12 10° NE daylight
12 Apr - 16:44:10 10° NW 16:51:42 24° N 16:59:03 10° NE daylight
12 Apr - 18:50:40 10° NW 18:59:17 36° NNE 19:07:36 10° E visible
12 Apr - 20:55:19 10° NW 21:04:46 83° SW 21:13:56 10° SE visible
12 Apr - 23:02:42 10° W 23:08:26 18° SW 23:14:10 10° SSW visible
13 Apr - 10:04:23 10° SSE 10:09:41 16° ESE 10:14:57 10° E daylight
13 Apr - 12:03:26 10° SW 12:13:30 71° SE 12:23:23 10° NE daylight
13 Apr - 14:09:28 10° W 14:18:50 42° NNW 14:27:58 10° NE daylight
13 Apr - 16:18:37 10° NW 16:26:13 24° N 16:33:38 10° NE daylight
13 Apr - 18:25:22 10° NW 18:33:53 34° NNE 18:42:07 10° E daylight
13 Apr - 20:30:03 10° NW 20:39:33 89° SW 20:48:46 10° SE visible
13 Apr - 22:36:55 10° W 22:43:18 21° SW 22:49:40 10° S visible
